Location: Central Coast NSW, Australia
(33.2407°S, 151.4316°E)
Time: 04:49:21
(UTC+10:00)

N. Korean satellite - Pass Details

Date: 26 March 2019
Orbit: 457 x 508 km, 97.2° (Epoch: 21 April)

Event Time Altitude Azimuth Distance (km) Brightness Sun altitude
Rises 19:31:06 0° 181° (S) 2,594 10.3 -7.7°
Reaches altitude 10° 19:33:23 10° 192° (SSW) 1,693 9.5 -8.1°
Maximum altitude 19:36:34 29° 253° (WSW) 913 8.9 -8.8°
Drops below altitude 10° 19:39:40 10° 315° (NW) 1,645 9.9 -9.4°
Sets 19:41:51 0° 326° (NW) 2,505 10.6 -9.9°
